User: anonymous   Login
Location: *
(32.8667°N, 13.1833°E)
Time: 18:11:37
(UTC+00:00)
Language:

Cosmos 2237 Rocket - Orbit

View from above orbital plane
View from above orbital plane
View from above satellite
View from above satellite

Ground track
Ground track

The orbit data is extracted from the following two-line orbital elements,

1 22566U 93016B   19290.07823842 -.00000080  00000-0 -16727-4 0  9992
2 22566  71.0073  78.7196 0012765 276.5630  83.4039 14.14963756371777
Epoch (UTC): 17 October 2019 01:52:39
Eccentricity: 0.0012765
inclination: 71.0073°
perigee height: 833 km
apogee height: 851 km
right ascension of ascending node: 78.7196°
argument of perigee: 276.5630°
revolutions per day: 14.14963756
mean anomaly at epoch: 83.4039°
orbit number at epoch: 37177

The dashed part of the orbit path shows where the satellite is in the earth's shadow,  

DLR